Location: Munich
(48.1349°N, 11.5617°E)
Time: 02:31:20
(UTC+02:00)

ISS - Visible Passes

Search period start: 19 July 2018 00:00
Search period end: 29 July 2018 00:00
Orbit: 402 x 408 km, 51.6° (Epoch: 19 July)

Date Brightness Start Highest point End Pass type
(mag) Time Alt. Az. Time Alt. Az. Time Alt. Az.
19 Jul -2.7 01:31:19 10° W 01:34:30 45° N 01:37:42 10° ENE visible
19 Jul -3.1 03:08:04 10° WNW 03:11:20 54° NNE 03:14:35 10° E visible
19 Jul -3.4 04:44:39 10° WNW 04:47:48 43° SSW 04:50:57 10° SE visible
19 Jul -3.6 23:02:41 10° SW 23:05:49 44° SSE 23:08:58 10° ENE visible
20 Jul -3.1 00:39:04 10° W 00:42:18 53° NNW 00:45:33 10° ENE visible
20 Jul -2.7 02:15:56 10° WNW 02:19:08 46° N 02:22:20 10° E visible
20 Jul -3.9 03:52:29 10° WNW 03:55:46 69° SSW 03:59:02 10° ESE visible
20 Jul -2.9 22:10:59 10° SSW 22:13:50 27° SE 22:16:41 10° E visible
20 Jul -3.6 23:46:52 10° WSW 23:50:07 70° NNW 23:53:25 10° ENE visible
21 Jul -2.6 01:23:45 10° WNW 01:26:55 43° N 01:30:05 10° ENE visible
21 Jul -3.8 03:00:21 10° WNW 03:03:39 81° NNE 03:06:57 10° ESE visible
21 Jul -2.6 04:37:14 10° W 04:39:52 22° SW 04:42:29 10° SSE visible
21 Jul -4.0 22:54:42 10° WSW 22:57:59 83° SSE 23:01:16 10° ENE visible
22 Jul -2.6 00:31:30 10° W 00:34:40 44° N 00:37:51 10° ENE visible
22 Jul -3.3 02:08:13 10° WNW 02:11:29 60° NNE 02:14:45 10° E visible
22 Jul -3.3 03:44:50 10° WNW 03:47:53 36° SW 03:50:56 10° SSE visible
22 Jul -3.7 22:02:42 10° SW 22:05:53 53° SSE 22:09:06 10° ENE visible
22 Jul -2.9 23:39:13 10° W 23:42:26 50° N 23:45:39 10° ENE visible
23 Jul -2.9 01:16:03 10° WNW 01:19:16 48° N 01:20:47 26° ENE visible
23 Jul -1.5 02:52:35 10° WNW 02:53:17 15° WNW 02:53:17 15° WNW visible
23 Jul -3.3 22:46:57 10° W 22:50:12 62° NNW 22:53:29 10° ENE visible
24 Jul -2.6 00:23:50 10° WNW 00:27:00 43° N 00:29:04 19° ENE visible
24 Jul -1.8 02:00:24 10° WNW 02:01:39 21° WNW 02:01:39 21° WNW visible
24 Jul -3.8 21:54:43 10° WSW 21:58:01 86° NNW 22:01:18 10° ENE visible
24 Jul -2.6 23:31:34 10° WNW 23:34:43 43° N 23:37:54 10° ENE visible
25 Jul -2.8 01:08:14 10° WNW 01:10:40 44° NW 01:10:40 44° NW visible
25 Jul -2.8 22:39:15 10° W 22:42:27 47° N 22:45:39 10° ENE visible
26 Jul -3.1 00:16:02 10° WNW 00:19:16 51° NNE 00:19:52 44° NE visible
26 Jul -3.1 21:46:57 10° W 21:50:10 57° NNW 21:53:25 10° ENE visible
26 Jul -2.7 23:23:49 10° WNW 23:26:59 44° N 23:29:10 18° ENE visible
27 Jul -1.9 01:00:21 10° WNW 01:01:47 24° WNW 01:01:47 24° WNW visible
27 Jul -2.6 22:31:31 10° WNW 22:34:40 42° N 22:37:50 10° ENE visible
28 Jul -3.5 00:08:08 10° WNW 00:11:08 66° NNW 00:11:08 66° NNW visible
28 Jul -2.7 21:39:11 10° W 21:42:20 45° N 21:45:32 10° ENE visible
28 Jul -3.2 23:15:55 10° WNW 23:19:10 56° NNE 23:20:31 30° E visible
